Flag for Canada Weather past 2 weeks in Gatineau, Quebec, Canada

Now
61 °F

Passing clouds.


Feels Like: 61 °F
Forecast: 58 / 78 °F
Wind: 8 mph from Southwest

Location: Ottawa Int'L. Ont.

Current Time: Aug 30, 2015 at 4:53:17 AM

Latest Report: Aug 30, 2015 at 4:00 AM


Visibility: 8 mi

Pressure: 30.04 "Hg

Humidity: 94%

Dew point: 59 °F

Location of GatineauLocation

Historic Weather in Gatineau — Graph

°F

Gatineau temperature yesterday

Maximum temperature yesterday: 73 °F (at 12:00 PM)
Minimum temperature yesterday: 54 °F (at 6:00 AM)
Average temperature yesterday: 64 °F

Past Weeks' High & Low Weather Summary

 TemperatureHumidityPressure
High88 °F (Aug 16, 4:00 PM)100% (Aug 15, 3:00 AM)30.20 "Hg (Aug 15, 3:00 AM)
Low48 °F (Aug 28, 6:00 AM)44% (Aug 22, 5:00 PM)29.77 "Hg (Aug 20, 6:00 PM)
Average69 °F81%30.00 "Hg
* Reported Aug 15 3:00 AM — Aug 30 3:00 AM, Gatineau, Weather by CustomWeather, © 2015

Note: Actual official high and low records may vary slightly from our data, if they occured in-between our weather recording intervals... More about our weather records

Advertising

Gatineau weather history for previous 24 hours

 ConditionsComfort  
Time TempWeatherWind HumidityBarometerVisibility
3:00 AM
Sun, Aug 30
61 °FPassing clouds.7 mph94%30.04 "Hg15 mi
2:00 AM61 °FPassing clouds.7 mph100%30.05 "Hg15 mi
1:00 AM63 °FOvercast.3 mph100%30.05 "Hg15 mi
12:00 AM64 °FOvercast.5 mph94%30.06 "Hg15 mi
11:00 PM
Sat, Aug 29
64 °FOvercast.3 mph94%30.08 "Hg15 mi
10:00 PM64 °FOvercast.6 mph94%30.07 "Hg15 mi
9:00 PM64 °FLight rain. Mostly cloudy.3 mph94%30.08 "Hg15 mi
8:00 PM64 °FLight rain. Mostly cloudy.5 mph94%30.07 "Hg15 mi
7:00 PM66 °FLight rain. Overcast.7 mph88%30.07 "Hg8 mi
6:00 PM66 °FSprinkles. More clouds than sun.5 mph83%30.07 "Hg10 mi
5:00 PM70 °FSprinkles. Mostly cloudy.9 mph69%30.08 "Hg15 mi
4:00 PM72 °FMore clouds than sun.12 mph65%30.08 "Hg15 mi
3:00 PM73 °FMore clouds than sun.10 mph57%30.09 "Hg15 mi
2:00 PM73 °FPartly sunny.10 mph61%30.10 "Hg15 mi
1:00 PM72 °FMore clouds than sun.10 mph61%30.11 "Hg15 mi
12:00 PM73 °FBroken clouds.8 mph61%30.11 "Hg15 mi
11:00 AM72 °FPartly sunny.7 mph69%30.14 "Hg15 mi
10:00 AM68 °FPartly sunny.8 mph83%30.14 "Hg15 mi
9:00 AM61 °FOvercast.7 mph88%30.16 "Hg15 mi
8:00 AM57 °FPartly sunny.3 mph94%30.16 "Hg15 mi
7:00 AM55 °FPartly cloudy.2 mph94%30.17 "Hg15 mi
6:00 AM54 °FOvercast.6 mph100%30.14 "Hg15 mi
5:00 AM55 °FPassing clouds.7 mph94%30.14 "Hg15 mi
4:00 AM55 °FFog.5 mph94%30.15 "Hg15 mi
Weather by CustomWeather, © 2015

See weather overviewHow to use our weather pages